sat.trackr.live / text

‹ back to catalog

ONEWEB-0107

NORAD 48048 · 2021-025G

PAYLOAD ACTIVE UNKNOWN

§ Identity

Operator
Country
UK
Launch date
2021-03-25
Launch site
VOSTO
Launch vehicle
Mass (kg)
RCS (m²)

Purposes: comms

External: N2YO · Heavens-Above · Gunter

§ Orbital elements

Epoch: 2026-05-25T00:32:49.975296Z

Period
109.63 min
Inclination
87.8950°
Eccentricity
0.0001693
Mean motion
13.13468499 rev/d
Perigee alt
1,208.5 km
Apogee alt
1,211.1 km
Semi-major
7,587.9 km
B*
7.5978e-4
RAAN
324.8239°
Arg perigee
99.6510°
Mean anomaly
260.4810°
Rev number
25,048

§ Raw data

ONEWEB-01071 48048U 21025G   26145.02280064  .00000290  00000+0  75978-3 0  99932 48048  87.8950 324.8239 0001693  99.6510 260.4810 13.13468499250481

JSON: /api/v1/satellites/48048 · /tle

For live sub-satellite position, see the globe view (requires WebGL).

§ Visibility from observer

Set your observer location to see the next 7 days of passes ≥ 10°. The values pass through the URL so the page stays shareable.

No JS? Fill the form by hand. The geolocation button needs JavaScript.